Regional Weather Roundup
Issued by NWS

Home | Current Version | Previous Version | Graphics & Text | Print | Product List | Glossary Off
Versions: 1 2 3 4 5 6 7 8 9 10 11 12 13 14 15 16 17 18 19 20 21 22 23 24 25 26 27 28 29 30 31 32 33 34 35 36 37 38 39 40 41 42 43 44 45 46 47 48 49 50

000
ASUS43 KOAX 040002
RWRNE

WEATHER ROUNDUP FOR NEBRASKA
NATIONAL WEATHER SERVICE OMAHA NE
700 PM CDT WED JUN 03 2015

NOTES: SATELLITE DATA IS BEING USED TO AUGMENT CLOUD COVER ABOVE
       12000 FEET.
       "FAIR" INDICATES FEW OR NO CLOUDS BELOW 12,000 FEET WITH NO
       SIGNIFICANT WEATHER AND/OR OBSTRUCTIONS TO VISIBILITY.

  * THESE STATIONS DO NOT REPORT WEATHER SUCH AS RAIN...SNOW OR FOG.

NEZ001>004-019>022-054>056-040100-
NEBRASKA PANHANDLE

CITY           SKY/WX    TMP DP  RH WIND       PRES   REMARKS
SCOTTSBLUFF    MOSUNNY   76  55  48 SE16      29.92F
6HR MIN TEMP:  72; 6HR MAX TEMP:  79; 6HR PCP: TRACE;

ALLIANCE       PTSUNNY   73  56  54 SE15      29.94F
6HR MIN TEMP:  70; 6HR MAX TEMP:  76;

CHADRON        CLOUDY    73  56  54 E16       29.93F
6HR MIN TEMP:  68; 6HR MAX TEMP:  74;

KIMBALL          N/A    N/A N/A N/A MISG        N/A
SIDNEY           N/A    N/A N/A N/A MISG      29.96F
$$

NEZ057>060-069>072-079>082-040100-
SOUTHWEST NEBRASKA

CITY           SKY/WX    TMP DP  RH WIND       PRES   REMARKS
NORTH PLATTE   PTSUNNY   76  59  55 E7        29.94S
6HR MIN TEMP:  74; 6HR MAX TEMP:  79;

IMPERIAL       PTSUNNY   75  57  53 E10       29.93F
6HR MIN TEMP:  74; 6HR MAX TEMP:  79;

LEXINGTON      SUNNY     76  62  60 E8        29.92S
MCCOOK         PTSUNNY   78  59  51 NE14      29.90S
6HR MIN TEMP:  78; 6HR MAX TEMP:  82;

$$

NEZ005>010-023>029-035>040-094-040100-
NORTH CENTRAL NEBRASKA

CITY           SKY/WX    TMP DP  RH WIND       PRES   REMARKS
VALENTINE      SUNNY     75  56  51 VRB7      29.96S
6HR MIN TEMP:  69; 6HR MAX TEMP:  76;

AINSWORTH      SUNNY     76  57  51 N5        29.96S
BROKEN BOW     MOSUNNY   77  62  59 E9        29.93S
6HR MIN TEMP:  75; 6HR MAX TEMP:  80;

ORD            MOSUNNY   78  62  57 SE7       29.90F
6HR MIN TEMP:  76; 6HR MAX TEMP:  81;

$$

NEZ041-046>049-061>064-073>077-083>087-040100-
SOUTH CENTRAL NEBRASKA

CITY           SKY/WX    TMP DP  RH WIND       PRES   REMARKS
GRAND ISLAND   SUNNY     77  62  59 E8        29.92S
6HR MIN TEMP:  72; 6HR MAX TEMP:  79;

HASTINGS       SUNNY     78  62  57 NE13      29.90F
6HR MIN TEMP:  75; 6HR MAX TEMP:  79;

KEARNEY *      SUNNY     79  63  57 E9        29.92S
$$

NEZ011>018-030>034-042>045-040100-
NORTHEAST NEBRASKA

CITY           SKY/WX    TMP DP  RH WIND       PRES   REMARKS
NORFOLK        SUNNY     79  61  53 E5        29.89S
6HR MIN TEMP:  77; 6HR MAX TEMP:  83;

ALBION         PTSUNNY   77  63  61 SE7       29.91S
BLAIR          MOSUNNY   79  61  54 S7        29.90S
COLUMBUS *     SUNNY     79  61  53 CALM      29.92R
FREMONT        MOSUNNY   81  62  52 S5        29.90S
TEKAMAH        MOSUNNY   84  58  40 N5        29.88S
6HR MIN TEMP:  77; 6HR MAX TEMP:  85;

$$

NEZ050>053-065>068-078-088>093-040100-
SOUTHEAST NEBRASKA

CITY           SKY/WX    TMP DP  RH WIND       PRES   REMARKS
LINCOLN        MOSUNNY   82  63  52 CALM      29.90F
6HR MIN TEMP:  75; 6HR MAX TEMP:  82;

OMAHA EPPLEY   PTSUNNY   80  62  54 CALM      29.89S
6HR MIN TEMP:  72; 6HR MAX TEMP:  81;

BEATRICE       CLOUDY    76  66  72 E8        29.90S
FALLS CITY     PTSUNNY   75  67  76 SE6       29.90S
6HR MIN TEMP:  67; 6HR MAX TEMP:  78;

NEBRASKA CITY  MOSUNNY   77  61  58 CALM      29.91R
PLATTSMOUTH    SUNNY     78  59  51 CALM      29.90S
$$

NEZ044-045-051>053-067-040100-
OMAHA AREA

CITY           SKY/WX    TMP DP  RH WIND       PRES   REMARKS
OMAHA EPPLEY   PTSUNNY   80  62  54 CALM      29.89S
6HR MIN TEMP:  72; 6HR MAX TEMP:  81;

BLAIR          MOSUNNY   79  61  54 S7        29.90S
FREMONT        MOSUNNY   81  62  52 S5        29.90S
OFFUTT AFB     MOSUNNY   78  65  64 SE6       29.89R
PLATTSMOUTH    SUNNY     78  59  51 CALM      29.90S
WAHOO          FAIR      81  60  48 CALM      29.90S
$$


USA.gov is the U.S. government's official web portal to all federal, state and local government web resources and services.